STARLINK-31587, 59570

Orbit data source: Space-Track

STARLINK-31587, 59570 is a payload satellite owned by SpaceX/Seattle (US) in LEO that was launched on Tue, 23 Apr 2024 UTC via an FALCON 9 launch vehicle from the Air Force Eastern Test Range (AFETR). Payload-class satellites include a variety of spacecraft equipped with specific instruments for various scientific and technological missions. These include communications satellites like Starlink; space stations such as the ISS; scientific satellites like the Hubble; Earth observation satellites from companies like Planet Labs, Umbra, and HawkEye 360; GPS; miniature CubeSats for education and research; and military/defense satellites.

Loading next visibility...
Identifier
59570, 2024-076G
Orbit
LEO
Country
Flag of USUS
Related business
Manufacturer
SpaceX/Seattle
Mission
Operational Commercial Communications
Bus & Motor
STARLINK V2M, Unknown motor
Mass
730 kg wet, ~700 kg dry
Launch date (UTC)
2024-04-23 (2 years ago)
Launch vehicle
FALCON 9
Launch site
Air Force Eastern Test Range (AFETR)
Object type
Payload
Rocket body
Debris
Shape & HBR
Box + 2 Pan, 17.7 m
Radar Cross Section
33.884 m², Large (>1 m²)

Expand to show TLE details & history
Last TLE update: 12 hours ago

TLE from 12 hours ago
0 STARLINK-31587
1 59570U 24076G   25310.52045722  .00004149  00000-0  16014-3 0  9996
2 59570  42.9994 344.7612 0000683 278.8520  81.2254 15.27592425 87684
Epoch: 2025-11-06T12:29Z
TLE epoch observation values (Epoch: 2025-11-06T12:29:27.503Z)
Latitude
-0.00005°
Longitude
111.41896°
Altitude
482.716 km
Speed
7.626 km/s
True Right ascension
22h 59m 02s
True Declination
0° 00' 00"
Sunlit
Object was in full shadow at epoch
Visualization orbit readout
Latitude
Unknown
Longitude
Unknown
Altitude
Unknown
Speed
Unknown
Apparent Right ascension
Unknown
Apparent Declination
Unknown
Sunlit
N/A
Visualization observer readout
Local Sidereal Time
20:49:42
Azimuth
Unknown
Elevation
Unknown
Doppler factor
Unknown
Orbital elements
Apogee altitude
485.426 km
Perigee altitude
484.488 km
Semi-major axis
6,863.094 km
Eccentricity
0.00007
Inclination
42.9994°
RAAN
344.7612°
Arg. of periapsis
278.852°
True anomaly
81.23314°
Mean anomaly
81.2254°
Eccentric anomaly
81.22927°
Mean motion
3.81736 °/min
Orbital period
94.31 mins
BSTAR
0.00016014
Loading maneuver chart data...
Computing Atmospheric mass density...
Loading historical data...
Loading historical data...
Loading historical data...
Loading historical data...
Loading historical data...
Loading historical data...
Loading historical data...

Documentation

Showing up to 5 results
|